Regional Weather Roundup
Issued by NWS

Home | Current Version | Previous Version | Graphics & Text | Print | Product List | Glossary On
Versions: 1 2 3 4 5 6 7 8 9 10 11 12 13 14 15 16 17 18 19 20 21 22 23 24 25 26 27
000
ASUS45 KTFX 231410
RWRMT
MONTANA REGIONAL WEATHER ROUNDUP
NATIONAL WEATHER SERVICE GREAT FALLS MT
800 AM MDT TUE AUG 23 2016

NOTE: "FAIR" INDICATES FEW OR NO CLOUDS BELOW 12000 FEET WITH NO
SIGNIFICANT WEATHER AND/OR OBSTRUCTIONS TO VISIBILITY.

MTZ001>007-043-231500-
WEST OF THE DIVIDE

CITY           SKY/WX    TMP DP  RH WIND       PRES   REMARKS
KALISPELL      SUNNY     45  41  86 MISG      30.06R
MISSOULA       SUNNY     48  35  60 CALM      30.13R
BUTTE          SUNNY     40  26  57 CALM      30.16R
MULLAN PASS    PTSUNNY   43  30  60 VRB5      30.14R
DEER LODGE       N/A     45  30  57 CALM      30.16R
EUREKA           N/A     46  37  71 CALM      30.08R
HAMILTON         N/A     46  32  57 S7        30.14R
LIBBY            N/A     43  34  70 CALM      30.09R
PLAINS           N/A     44  33  65 CALM      30.08R
THOMPSON FALLS   N/A     47  38  71 CALM      30.13
$$

MTZ008-052>055-231500-
SOUTHWEST MONTANA

CITY           SKY/WX    TMP DP  RH WIND       PRES   REMARKS
BOZEMAN        SUNNY     46  37  71 SE7       30.12R
DILLON         SUNNY     49  26  41 SW9       30.12R
W YELLOWSTONE  CLOUDY    32  16  51 CALM      30.18R HAZE
ENNIS          SUNNY     45  19  36 CALM      30.17S
THREE FORKS      N/A     46  30  54 CALM      30.10R
TWIN BRIDGES     N/A     50  27  41 SE5       30.10R
$$

MTZ009-010-012-014-046-048-049-054-231500-
EAST SLOPES AND CENTRAL MONTANA

CITY           SKY/WX    TMP DP  RH WIND       PRES   REMARKS
CUT BANK       CLOUDY    51  41  68 CALM      29.99R
GREAT FALLS    SUNNY     54  33  45 SW12      30.00R
MALMSTROM AFB  SUNNY     55  33  43 SW12      30.01R
HELENA         SUNNY     59  29  31 SW15G23   30.08R
CHOTEAU          N/A     57  34  41 W8        30.02R
CONRAD           N/A     51  44  77 CALM      30.01R
$$

MTZ011-013-016-021-045-047-050-051-231500-
NORTH CENTRAL MONTANA

CITY           SKY/WX    TMP DP  RH WIND       PRES   REMARKS
HAVRE          CLOUDY    57  44  62 W14       29.93R
LEWISTOWN      CLOUDY    58  29  33 W15       30.01R
N BAR RANCH      N/A     55  28  35 N8        30.03R
CHINOOK          N/A     57  45  62 W16       29.91R
$$

MTZ017>020-022>027-061-062-231500-
NORTHEAST MONTANA

CITY           SKY/WX    TMP DP  RH WIND       PRES   REMARKS
GLASGOW        CLOUDY    55  39  54 W9        29.89R
JORDAN           N/A     56  35  45 W8        29.93R
SIDNEY         CLOUDY    63  35  35 NW15      29.81R
WOLF POINT     CLOUDY    57  37  47 W12       29.86R
POPLAR           N/A     59  37  44 W9        29.84R
SCOBEY           N/A     60  36  40 SW7       29.84R
$$

MTZ028>42-056>058-231500-
SOUTHCENTRAL AND SOUTHEAST MONTANA

CITY           SKY/WX    TMP DP  RH WIND       PRES   REMARKS
BAKER          SUNNY     60  34  37 W14       29.88R
BILLINGS       MOSUNNY   58  33  39 W5        30.01R
LIVINGSTON     SUNNY     55  27  34 W10       30.08R
MILES CITY     SUNNY     60  33  36 W9        29.92R
FORSYTH          N/A     57  37  47 W7        29.95R
LAUREL           N/A     60  31  33 CALM      30.00R
ROUNDUP          N/A     52  29  41 S8        29.91R
$$

REGIONAL REPORTS...DAKOTAS

CITY           SKY/WX    TMP DP  RH WIND       PRES   REMARKS
WILLISTON      CLOUDY    68  35  29 NW20      29.77R
MINOT          CLOUDY    62  59  90 NW13      29.62F
DICKINSON      CLOUDY    64  39  39 NW14      29.76R
CROSBY           N/A     61  41  48 NW12      29.79R
BISMARCK       PTSUNNY   65  63  93 W9        29.64R FOG
GRAND FORKS    CLOUDY    69  63  81 S12       29.62S
FARGO          PTSUNNY   72  61  68 SE20G25   29.70S
BUFFALO SD       N/A     65  34  31 NW37G44   29.74R
RAPID CITY     SUNNY     70  36  28 NW22      29.79R
$$

REGIONAL REPORTS...WYOMING/IDAHO/WASHINGTON

CITY           SKY/WX    TMP DP  RH WIND       PRES   REMARKS
GILLETTE       SUNNY     59  29  31 NW13      30.00R
SHERIDAN       SUNNY     59  37  44 CALM      30.01R
BUFFALO WY     SUNNY     60  25  26 N8        30.05R
CODY           SUNNY     55  27  33 NW5       30.07R
YELLOWSTONE LA   N/A     43  23  45 VRB3      30.24R
IDAHO FALLS    CLOUDY    56  29  35 SW9       30.10R
SALMON         SUNNY     46  30  53 CALM      30.15R
BOISE          CLEAR     53  32  44 CALM      30.10R
SPOKANE        PTCLDY    52  38  58 W7        30.09R
$$

REGIONAL REPORTS...ALBERTA

CITY           SKY/WX    TMP DP  RH WIND       PRES   REMARKS
EDMONTON       LGT RAIN  54  52  94 N17G23    29.90R
CALGARY        PTSUNNY   52  45  76 NW29G41   29.94R
LETHBRIDGE     LGT RAIN  54  48  82 W15       29.97R
MEDICINE HAT   CLOUDY    57  48  72 W17G26    29.84R
WATERTON GATE    N/A     55  36  47 SW17G26     N/A
CARDSTON         N/A     50  41  71 SE1         N/A
MILK RIVER       N/A     54  43  66 NW15G22     N/A
$$

REGIONAL REPORTS...SASKATCHEWAN

CITY           SKY/WX    TMP DP  RH WIND       PRES   REMARKS
SWIFT CURRENT  CLOUDY    54  46  76 W25G40    29.72S
REGINA         PTSUNNY   55  48  76 SW7       29.77R
SASKATOON      MOSUNNY   57  48  72 S10       29.67R
CYPRESS HILLS    N/A     48  43  81 W15G24      N/A
ROCKGLEN         N/A     54  41  62 SW16G23     N/A
ASSINIBOIA       N/A     57  54  88 NW17G23     N/A
$$




USA.gov is the U.S. government's official web portal to all federal, state and local government web resources and services.